Regional Weather Roundup
Issued by NWS

Home | Current Version | Previous Version | Graphics & Text | Print | Product List | Glossary On
Versions: 1 2 3 4 5 6 7 8 9 10 11 12 13 14 15 16 17 18 19 20 21 22 23 24 25 26 27 28 29 30 31 32 33 34 35 36 37 38 39 40 41 42 43 44 45 46 47 48 49 50
000
ASUS45 KTFX 021519
RWRMT
MONTANA HOURLY WEATHER ROUNDUP
NATIONAL WEATHER SERVICE GREAT FALLS MT
919 AM MDT TUE SEP 2 2014

NOTE: "FAIR" INDICATES FEW OR NO CLOUDS BELOW 12000 FEET WITH NO
SIGNIFICANT WEATHER AND/OR OBSTRUCTIONS TO VISIBILITY.

* THESE STATIONS ARE NOT UNDER NWS QUALITY CONTROL. THEY DO NOT
   REPORT WEATHER SUCH AS PRECIPITATION OR FOG.

MTZ001>007-043-021600-
WEST OF THE DIVIDE
CITY           SKY/WX    TMP DP  RH WIND       PRES   REMARKS
KALISPELL      PTCLDY    52  45  77 CALM      29.89F
MISSOULA       PTCLDY    50  41  71 CALM      29.98F
BUTTE          PTCLDY    43  37  79 CALM      30.04S
MULLAN PASS    PTCLDY    46  37  71 VRB6      29.97S
* LINCOLN      N/A       37  35  92 N/A        N/A
* LOOKOUT PASS N/A       43  40  89 SE2        N/A
* POLSON       N/A       51  44  77 SE2        N/A
* RONAN APT    PTCLDY    55  45  69 N/A        N/A
* SEELEY LAKE  N/A       38  37  96 N/A        N/A
* THOMP F APT  PTCLDY    49  37  63 NE3        N/A
$$

MTZ008-052>055-021600-
SOUTHWEST MONTANA
CITY           SKY/WX    TMP DP  RH WIND       PRES   REMARKS
BOZEMAN        PTSUNNY   52  43  72 E3        30.00S
DILLON         PTCLDY    52  39  61 SW13      30.02S
W YELLOWSTONE  SUNNY     50  36  59 CALM      30.12S
* THREE FORKS  PTSUNNY   52  36  55 N/A        N/A
* BOULDER HILL N/A       50  33  52 SW8        N/A
* MONIDA PASS  N/A       48  36  63 SE12       N/A
* RAYNOLDS PAS N/A       46  28  50 SE15       N/A
* WHITEHALL    N/A       48  42  80 N3G9       N/A
* WISE RIVER   N/A       37  34  89 W4         N/A
$$

MTZ009>010-012-014-046-048-049-054-021600-
EAST SLOPES AND CENTRAL MONTANA
CITY           SKY/WX    TMP DP  RH WIND       PRES   REMARKS
GREAT FALLS    CLOUDY    57  39  51 SW7       29.89R
HELENA         PTSUNNY   55  43  64 CALM      29.97S
MALMSTROM AFB  CLOUDY    55  43  64 SW7       29.90S
* CONRAD       CLOUDY    57  45  64 S7         N/A
* EAST GLACIER N/A       50  37  61 W13        N/A
* MONARCH      N/A       52  32  47 SW10G16    N/A
* PENDROY      N/A       54  38  55 S7         N/A
* ROGERS PASS  N/A       49  36  61 SE6G17     N/A
* SAINT MARY   N/A       54  38  55 S7G17      N/A
* SWEET GRASS  N/A       57  37  47 SW16G22    N/A
* WHITE SULPH  N/A       56  45  67 NW2        N/A
$$

MTZ011-013-016-021-035-040-045-047-050-051-021600-
NORTH CENTRAL MONTANA
CITY           SKY/WX    TMP DP  RH WIND       PRES   REMARKS
HAVRE          PTSUNNY   59  39  48 SW15      29.84S
LEWISTOWN      CLOUDY    55  43  64 CALM      29.93S
* CHINOOK      PTCLDY    63  43  48 W8        29.83F
* FORT BENTON  CLOUDY    57  43  60 SW3       29.88S
* CHESTER      N/A       51  41  69 N/A        N/A
* DENTON       N/A       57  40  53 SE7        N/A
* GEYSER       N/A       54  41  62 SW2        N/A
* JUDITH GAP   N/A       56  41  57 W9         N/A
* LOMA         N/A       54  41  62 SW1        N/A
$$

MTZ017>020-022>027-061-062-021600-
NORTHEAST MONTANA
CITY           SKY/WX    TMP DP  RH WIND       PRES   REMARKS
GLASGOW        PTCLDY    57  45  64 W8        29.82S
GLENDIVE       SUNNY     63  48  58 S5        29.86S
SIDNEY         PTCLDY    66  45  47 W15G21    29.82R
WOLF POINT     PTSUNNY   61  48  62 W13       29.81S
* BEAVER HILL  N/A       59  44  58 SW14       N/A
* CIRCLE       N/A       62  47  58 SW7G14     N/A
* LINDSAY DVD  N/A       61  41  48 W14G19     N/A
* NAVAJO       N/A       58  44  60 W12        N/A
$$

MTZ028>042-056>058-021600-
SOUTHCENTRAL AND SOUTHEAST MONTANA
CITY           SKY/WX    TMP DP  RH WIND       PRES   REMARKS
BAKER          PTCLDY    63  46  54 W15       29.89S
BILLINGS       PTCLDY    55  45  69 SW8       29.94S
LIVINGSTON     PTCLDY    54  39  57 NW9       29.97S
MILES CITY     PTCLDY    63  45  52 W9        29.89R
* LAUREL APT   SUNNY     57  43  60 N/A        N/A
* ROUNDUP APT  PTSUNNY   54  41  62 S9         N/A
* ALZADA       N/A       68  45  44 S8G13      N/A
* HYSHAM       N/A       58  41  53 W8         N/A
* LAME DEER    N/A       60  41  50 W6         N/A
* REED POINT   N/A       52  43  72 NE3        N/A
* ROSCOE HILL  N/A       59  31  35 E12        N/A
$$

REGIONAL REPORTS...DAKOTAS
CITY           SKY/WX    TMP DP  RH WIND       PRES   REMARKS
WILLISTON      PTCLDY    63  46  54 W15       29.78R
DICKINSON      SUNNY     63  46  54 W14       29.83R
BEACH          N/A       61  46  58 W14G20    29.86R
CROSBY         SUNNY     61  50  67 W14       29.75R
TIOGA          SUNNY     63  50  63 W14       29.79R
WATFORD CITY   SUNNY     64  46  52 W10G17    29.77S
BISMARCK       PTCLDY    61  52  72 S5        29.83F
GRAND FORKS    CLOUDY    63  54  73 W7        29.79R
FARGO          PTCLDY    64  54  70 SW10      29.83S
BUFFALO SD     PTSUNNY   61  48  62 SW7       29.84S
RAPID CITY     SUNNY     64  48  56 S7        29.95S
$$

REGIONAL REPORTS...WYOMING/IDAHO/WASHINGTON
CITY           SKY/WX    TMP DP  RH WIND       PRES   REMARKS
GILLETTE       PTCLDY    61  45  56 S12       29.97R
SHERIDAN       PTCLDY    55  45  69 N7        29.94S
CODY           PTCLDY   N/A N/A N/A N/A        N/A
YELLOWSTONE LA SUNNY     46  37  71 CALM      30.20S
SALMON         PTCLDY    48  43  83 CALM      30.02F
MULLAN PASS    PTCLDY    46  37  71 VRB6      29.97S
SAND POINT     CLOUDY    54  52  93 CALM      29.86F
SPOKANE        PTSUNNY   55  39  55 S8        29.86F
$$

REGIONAL REPORTS...ALBERTA
CITY           SKY/WX    TMP DP  RH WIND       PRES   REMARKS
CALGARY        CLOUDY    55  43  64 NW8       29.76S
LETHBRIDGE     PTSUNNY   59  43  56 SW10      29.78F
MEDICINE HAT   PTSUNNY   54  48  80 SW3       29.78S
EDMONTON       PTSUNNY   50  48  93 W6        29.75R
WATERTON GATE  N/A       55  39  55 SW12G17    N/A
CARDSTON       N/A       57  45  64 S3         N/A
MILK RIVER     N/A       61  43  52 W12G18     N/A
$$

REGIONAL REPORTS...SASKATCHEWAN
CITY           SKY/WX    TMP DP  RH WIND       PRES   REMARKS
SWIFT CURRENT  SUNNY     54  46  74 W14       29.79R
MOOSE JAW      SUNNY     57  50  78 W6        29.76R
REGINA         SUNNY     59  50  72 NE5       29.73R
VAL MARIE      N/A       55  46  72 W5         N/A
ASSINIBOIA     N/A       57  46  67 W7         N/A
CORONACH       N/A       59  46  62 W13        N/A

$$



USA.gov is the U.S. government's official web portal to all federal, state and local government web resources and services.